M I D A S
Marine Information and Data Acquisition System
Tripno 1593 of the Zeeleeuw from 2008-10-22 06:58:39 to 2008-10-22 11:53:53
Back to CruiseResearch ActivitiesStationsMapUnderway DataData graphs

EquipmentUnitsComment
TimeDGPSUTC
LatitudeDGPSDM.mWGS84
LongitudeDGPSDM.mWGS84
TemperatureSBE03/SBE38deg celciusITS90
ConductivitySBE21S/mITS90
SalinitySBE21 Practical Salinity Units
ChlorophylAChelsea fluorimeterg/lCalibrated in Aceton
Missing or incorrect values are displayed as -999
Sea surface data collected by the RV Zeeleeuw from 2008-10-22 06:54:10 to 2008-10-22 11:56:52
Time Latitude Longitude Temperature Conductivity Salinity ChlorophylA
2008-10-22 06:55:15 51°13.642 2°55.975 19.1642 0.130919 0.707886 -1.522929
2008-10-22 06:56:15 51°13.674 2°55.863 19.2634 0.130919 0.708044 -1.522929
2008-10-22 06:57:15 51°13.694 2°55.773 19.2099 0.130919 0.708189 -1.522929
2008-10-22 06:58:15 51°13.695 2°55.726 19.2453 0.130919 0.708287 -1.522929
2008-10-22 06:59:15 51°13.72 2°55.734 19.3511 0.130919 0.708518 -1.522929
2008-10-22 07:00:15 51°13.809 2°55.657 19.0852 0.130919 0.708603 -1.522929
2008-10-22 07:01:15 51°13.931 2°55.559 19.1679 0.130816 0.708094 -1.522929
2008-10-22 07:02:15 51°14.057 2°55.461 19.1828 0.130816 0.708228 -1.522929
2008-10-22 07:03:15 51°14.182 2°55.353 19.1909 0.130816 0.708386 -1.522929
2008-10-22 07:04:15 51°14.298 2°55.183 19.1226 0.130816 0.70852 -1.488105
2008-10-22 07:05:15 51°14.392 2°54.957 19.0604 0.130816 0.708606 -1.522929
2008-10-22 07:06:15 51°14.494 2°54.7 18.9976 0.130816 0.708727 -1.488105
2008-10-22 07:07:15 51°14.589 2°54.427 19.0005 0.130816 0.708849 -1.488105
2008-10-22 07:08:15 51°14.656 2°54.138 18.9286 0.130816 0.708935 -1.488105
2008-10-22 07:09:15 51°14.703 2°53.842 18.9401 0.130816 0.70902 -1.488105
2008-10-22 07:10:15 51°14.747 2°53.542 18.8964 0.130713 0.708547 -1.488105
2008-10-22 07:11:15 51°14.791 2°53.241 18.9552 0.130713 0.708657 -1.522929
2008-10-22 07:12:15 51°14.835 2°52.94 18.9337 0.130713 0.708779 -1.488105
2008-10-22 07:13:15 51°14.87 2°52.641 18.8671 0.130713 0.708913 -1.488105
2008-10-22 07:14:15 51°14.906 2°52.343 18.8536 0.130713 0.70906 -1.488105
2008-10-22 07:15:15 51°14.944 2°52.046 18.8965 0.130713 0.70917 -1.488105
2008-10-22 07:16:15 51°14.985 2°51.75 18.8919 0.130713 0.709292 -1.488105
2008-10-22 07:17:15 51°15.034 2°51.456 18.8763 0.130713 0.70939 -1.488105
2008-10-22 07:18:15 51°15.084 2°51.162 18.9183 0.130713 0.709488 -1.488105
2008-10-22 07:19:15 51°15.132 2°50.867 18.9118 0.13061 0.708965 -1.488105
2008-10-22 07:20:15 51°15.18 2°50.572 18.8347 0.13061 0.709051 -1.488105
2008-10-22 07:21:15 51°15.226 2°50.276 18.8981 0.13061 0.709112 -1.488105
2008-10-22 07:22:15 51°15.272 2°49.978 18.8723 0.13061 0.709173 -1.488105
2008-10-22 07:23:15 51°15.329 2°49.684 18.8511 0.13061 0.709259 -1.488105
2008-10-22 07:24:15 51°15.389 2°49.391 18.8848 0.13061 0.709369 -1.488105
2008-10-22 07:25:15 51°15.448 2°49.098 18.892 0.13061 0.709467 -1.453281
2008-10-22 07:26:15 51°15.512 2°48.808 18.8445 0.13061 0.709577 -1.488105
2008-10-22 07:27:15 51°15.573 2°48.516 18.8995 0.13061 0.7097 -1.488105
2008-10-22 07:28:15 51°15.635 2°48.222 18.8877 0.13061 0.709786 -1.488105
2008-10-22 07:29:15 51°15.695 2°47.928 18.8954 0.13061 0.709859 -1.488105
2008-10-22 07:30:15 51°15.756 2°47.634 18.8932 0.13061 0.709896 -1.488105
2008-10-22 07:31:15 51°15.819 2°47.343 18.9037 0.13061 0.709945 -1.488105
2008-10-22 07:32:15 51°15.881 2°47.052 18.9207 0.13061 0.70997 -1.488105
2008-10-22 07:33:15 51°15.938 2°46.76 18.94 0.13061 0.709982 -1.488105
2008-10-22 07:34:15 51°15.996 2°46.47 18.9088 0.130507 0.709422 -1.488105
2008-10-22 07:35:15 51°16.061 2°46.182 18.9337 0.130507 0.709422 -1.488105
2008-10-22 07:36:15 51°16.153 2°45.909 18.9178 0.130507 0.709434 -1.488105
2008-10-22 07:37:15 51°16.257 2°45.64 18.9438 0.13061 0.710031 -1.488105
2008-10-22 07:38:15 51°16.359 2°45.369 18.9351 0.13061 0.710068 -1.488105
2008-10-22 07:39:15 51°16.461 2°45.098 18.9373 0.130507 0.709545 -1.453281
2008-10-22 07:40:15 51°16.57 2°44.834 18.8879 0.130507 0.70963 -1.488105
2008-10-22 07:41:15 51°16.679 2°44.569 18.8998 0.130507 0.709716 -1.488105
2008-10-22 07:42:15 51°16.784 2°44.301 18.918 0.130507 0.709778 -1.488105
2008-10-22 07:43:15 51°16.9 2°44.042 18.9345 0.130507 0.709864 -1.488105
2008-10-22 07:44:13 51°17.01 2°43.791 18.9123 0.130507 0.709962 -1.453281
2008-10-22 07:45:12 51°17.117 2°43.531 18.9213 0.130507 0.710048 -1.488105
2008-10-22 07:46:11 51°17.225 2°43.274 18.9153 0.130507 0.710134 -1.453281
2008-10-22 07:47:12 51°17.341 2°43.015 18.9232 0.130507 0.71022 -1.488105
2008-10-22 07:48:11 51°17.456 2°42.767 18.946 0.130507 0.710318 -1.488105
2008-10-22 07:49:11 51°17.575 2°42.512 18.9382 0.130507 0.710429 -1.453281
2008-10-22 07:50:11 51°17.696 2°42.259 18.9384 0.130507 0.710539 -1.453281
2008-10-22 07:51:11 51°17.808 2°41.999 18.946 0.130507 0.71065 -1.488105
2008-10-22 07:52:11 51°17.92 2°41.738 18.9512 0.130507 0.710773 -1.453281
2008-10-22 07:53:11 51°18.027 2°41.475 18.9359 0.130404 0.710286 -1.453281
2008-10-22 07:54:11 51°18.135 2°41.211 18.9772 0.130404 0.710397 -1.453281
2008-10-22 07:55:11 51°18.243 2°40.951 18.9503 0.130404 0.710508 -1.453281
2008-10-22 07:56:11 51°18.351 2°40.691 18.952 0.130404 0.710619 -1.453281
2008-10-22 07:57:11 51°18.459 2°40.434 18.9575 0.130404 0.710742 -1.453281
2008-10-22 07:58:11 51°18.57 2°40.178 18.9559 0.130404 0.710853 -1.453281
2008-10-22 07:59:12 51°18.682 2°39.913 18.9825 0.130404 0.710939 -1.453281
2008-10-22 08:00:11 51°18.792 2°39.658 18.9918 0.130404 0.711087 -1.453281
2008-10-22 08:01:12 51°18.903 2°39.389 18.9728 0.130404 0.711186 -1.488105
2008-10-22 08:02:11 51°19.011 2°39.129 18.9878 0.130302 0.710711 -1.453281
2008-10-22 08:03:12 51°19.126 2°38.862 18.9893 0.130302 0.710846 -1.453281
2008-10-22 08:04:11 51°19.235 2°38.602 18.9888 0.130302 0.710957 -1.453281
2008-10-22 08:05:12 51°19.345 2°38.333 19.0185 0.130302 0.711081 -1.453281
2008-10-22 08:06:11 51°19.453 2°38.075 19.016 0.130302 0.711204 -1.453281
2008-10-22 08:07:11 51°19.567 2°37.815 19.0259 0.130302 0.711328 -1.453281
2008-10-22 08:08:12 51°19.684 2°37.554 19.0018 0.130302 0.711464 -1.453281
2008-10-22 08:09:11 51°19.8 2°37.309 19.0313 0.130302 0.7116 -1.453281
2008-10-22 08:10:11 51°19.914 2°37.095 19.0202 0.130199 0.711136 -1.453281
2008-10-22 08:11:11 51°20.025 2°36.902 19.0481 0.130199 0.711273 -1.453281
2008-10-22 08:12:12 51°20.068 2°36.858 19.0556 0.130199 0.711384 -1.453281
2008-10-22 08:13:14 51°20.08 2°36.881 19.0529 0.130199 0.71157 -1.453281
2008-10-22 08:14:13 51°20.095 2°36.906 19.0789 0.130199 0.711681 -1.453281
2008-10-22 08:15:11 51°20.109 2°36.932 19.0702 0.130199 0.711805 -1.453281
2008-10-22 08:16:11 51°20.122 2°36.96 19.0613 0.130096 0.711341 -1.453281
2008-10-22 08:17:11 51°20.134 2°36.99 19.0763 0.130096 0.711477 -1.453281
2008-10-22 08:18:11 51°20.145 2°37.022 19.0688 0.130096 0.711601 -1.453281
2008-10-22 08:19:11 51°20.155 2°37.052 19.085 0.130096 0.711713 -1.453281
2008-10-22 08:20:11 51°20.164 2°37.084 19.1052 0.130096 0.711837 -1.453281
2008-10-22 08:21:11 51°20.174 2°37.114 19.1031 0.129993 0.711373 -1.453281
2008-10-22 08:22:11 51°20.183 2°37.145 19.1241 0.129993 0.711509 -1.453281
2008-10-22 08:23:11 51°20.192 2°37.175 19.0956 0.129993 0.711658 -1.453281
2008-10-22 08:24:11 51°20.202 2°37.204 19.1285 0.129993 0.71182 -1.453281
2008-10-22 08:25:11 51°20.211 2°37.232 19.1362 0.129993 0.711981 -1.418457
2008-10-22 08:26:12 51°20.224 2°37.261 19.1615 0.12989 0.711554 -1.453281
2008-10-22 08:27:11 51°20.261 2°37.264 19.1702 0.12989 0.711715 -1.453281
2008-10-22 08:28:11 51°20.283 2°37.218 19.1613 0.12989 0.711877 -1.418457
2008-10-22 08:29:11 51°20.253 2°37.194 19.1391 0.12989 0.712051 -1.453281
2008-10-22 08:30:11 51°20.208 2°37.177 19.1576 0.129787 0.711598 -1.418457
2008-10-22 08:31:12 51°20.174 2°37.104 19.1753 0.129787 0.711797 -1.418457
2008-10-22 08:32:11 51°20.151 2°37.039 19.1689 0.129787 0.711934 -1.418457
2008-10-22 08:33:12 51°20.141 2°37.004 19.19 0.129684 0.711581 -1.453281
2008-10-22 08:34:11 51°20.137 2°36.992 19.2032 0.129684 0.711756 -1.418457
2008-10-22 08:35:12 51°20.137 2°36.992 19.2115 0.129684 0.71198 -1.418457
2008-10-22 08:36:11 51°20.139 2°37.001 19.2101 0.129581 0.711614 -1.418457
2008-10-22 08:37:11 51°20.141 2°37.014 19.2134 0.129581 0.711801 -1.453281
2008-10-22 08:38:11 51°20.139 2°37.013 19.2436 0.129581 0.712001 -1.453281
2008-10-22 08:39:12 51°20.136 2°36.998 19.2326 0.129478 0.711597 -1.418457
2008-10-22 08:40:11 51°20.128 2°36.981 19.2479 0.129478 0.711759 -1.453281
2008-10-22 08:41:11 51°20.125 2°36.981 19.2559 0.129478 0.711934 -1.418457
2008-10-22 08:42:11 51°20.127 2°36.991 19.2556 0.129375 0.711505 -1.453281
2008-10-22 08:43:11 51°20.134 2°37.011 19.2421 0.129375 0.711668 -1.418457
2008-10-22 08:44:11 51°20.142 2°37.041 19.2721 0.129375 0.71183 -1.418457
2008-10-22 08:45:11 51°20.154 2°37.071 19.2944 0.129272 0.711389 -1.418457
2008-10-22 08:46:11 51°20.165 2°37.099 19.2661 0.129272 0.711539 -1.418457
2008-10-22 08:47:11 51°20.175 2°37.125 19.2984 0.129272 0.711726 -1.418457
2008-10-22 08:48:11 51°20.185 2°37.151 19.3018 0.12917 0.711359 -1.453281
2008-10-22 08:49:12 51°20.193 2°37.177 19.308 0.12917 0.711585 -1.418457
2008-10-22 08:50:11 51°20.201 2°37.204 19.3194 0.129067 0.711268 -1.418457
2008-10-22 08:51:12 51°20.209 2°37.231 19.3382 0.129067 0.711556 -1.418457
2008-10-22 08:52:11 51°20.217 2°37.257 19.3223 0.128964 0.711264 -1.418457
2008-10-22 08:53:12 51°20.203 2°37.278 19.3294 0.128964 0.71159 -1.453281
2008-10-22 08:54:11 51°20.177 2°37.232 19.366 0.128861 0.71136 -1.453281
2008-10-22 08:55:11 51°20.165 2°37.124 19.3636 0.128861 0.711636 -1.418457
2008-10-22 08:56:11 51°20.174 2°36.993 19.3675 0.128758 0.711357 -1.453281
2008-10-22 08:57:11 51°20.19 2°36.898 19.3794 0.128655 0.711014 -1.418457
2008-10-22 08:58:12 51°20.214 2°36.851 19.4007 0.128655 0.711252 -1.418457
2008-10-22 08:59:12 51°20.238 2°36.834 19.4077 0.128552 0.710847 -1.418457
2008-10-22 09:00:11 51°20.257 2°36.839 19.3909 0.128552 0.711035 -1.418457
2008-10-22 09:01:11 51°20.274 2°36.852 19.3927 0.128449 0.710617 -1.418457
2008-10-22 09:02:12 51°20.289 2°36.873 19.3861 0.128449 0.71078 -1.418457
2008-10-22 09:03:11 51°20.315 2°36.864 19.4351 0.128346 0.710361 -1.418457
2008-10-22 09:04:11 51°20.308 2°36.801 19.4126 0.128346 0.710512 -1.418457
2008-10-22 09:05:11 51°20.26 2°36.836 19.393 0.128346 0.710676 -1.418457
2008-10-22 09:06:11 51°20.226 2°36.907 19.3944 0.128243 0.710257 -1.418457
2008-10-22 09:07:12 51°20.193 2°36.951 19.4105 0.128243 0.710496 -1.418457
2008-10-22 09:08:11 51°20.167 2°36.974 19.398 0.128141 0.71019 -1.418457
2008-10-22 09:09:12 51°20.152 2°36.991 19.421 0.128141 0.710505 -1.418457
2008-10-22 09:10:11 51°20.145 2°37.01 19.4304 0.128141 0.710757 -1.453281
2008-10-22 09:11:12 51°20.142 2°37.029 19.4548 0.128038 0.710451 -1.453281
2008-10-22 09:12:11 51°20.142 2°37.049 19.4629 0.127935 0.710132 -1.418457
2008-10-22 09:13:11 51°20.144 2°37.071 19.4644 0.127935 0.710423 -1.453281
2008-10-22 09:14:12 51°20.149 2°37.095 19.4611 0.127832 0.710091 -1.418457
2008-10-22 09:15:12 51°20.156 2°37.12 19.4801 0.127832 0.710356 -1.418457
2008-10-22 09:16:12 51°20.163 2°37.144 19.5084 0.127729 0.710037 -1.418457
2008-10-22 09:17:11 51°20.169 2°37.166 19.4981 0.127729 0.710353 -1.418457
2008-10-22 09:18:12 51°20.176 2°37.19 19.4936 0.127626 0.710072 -1.453281
2008-10-22 09:19:11 51°20.182 2°37.213 19.5175 0.127523 0.709739 -1.453281
2008-10-22 09:20:11 51°20.189 2°37.236 19.5203 0.127523 0.70998 -1.453281
2008-10-22 09:21:12 51°20.196 2°37.257 19.5406 0.12742 0.709622 -1.453281
2008-10-22 09:22:12 51°20.203 2°37.278 19.5526 0.12742 0.709914 -1.453281
2008-10-22 09:23:12 51°20.21 2°37.299 19.5539 0.127317 0.709619 -1.418457
2008-10-22 09:24:12 51°20.216 2°37.32 19.576 0.127214 0.709337 -1.453281
2008-10-22 09:25:12 51°20.198 2°37.332 19.585 0.127214 0.709578 -1.453281
2008-10-22 09:26:11 51°20.177 2°37.298 19.5817 0.127111 0.709219 -1.418457
2008-10-22 09:27:11 51°20.181 2°37.232 19.6227 0.127111 0.709499 -1.418457
2008-10-22 09:28:12 51°20.187 2°37.186 19.6119 0.127009 0.709114 -1.453281
2008-10-22 09:29:12 51°20.193 2°37.157 19.6141 0.126906 0.708883 -1.453281
2008-10-22 09:30:12 51°20.195 2°37.139 19.6176 0.126906 0.709188 -1.453281
2008-10-22 09:31:12 51°20.195 2°37.127 19.6461 0.126906 0.709429 -1.453281
2008-10-22 09:32:12 51°20.195 2°37.119 19.6484 0.126803 0.70907 -1.453281
2008-10-22 09:33:11 51°20.199 2°37.114 19.6414 0.126803 0.709325 -1.453281
2008-10-22 09:34:12 51°20.205 2°37.112 19.6579 0.1267 0.708927 -1.453281
2008-10-22 09:35:11 51°20.216 2°37.11 19.6884 0.1267 0.709157 -1.418457
2008-10-22 09:36:11 51°20.22 2°37.074 19.6738 0.1267 0.709399 -1.418457
2008-10-22 09:37:11 51°20.212 2°37.061 19.6735 0.126597 0.708988 -1.453281
2008-10-22 09:38:12 51°20.208 2°37.069 19.6767 0.126597 0.70918 -1.418457
2008-10-22 09:39:12 51°20.208 2°37.085 19.6863 0.126597 0.709384 -1.418457
2008-10-22 09:40:12 51°20.211 2°37.104 19.6841 0.126494 0.70896 -1.453281
2008-10-22 09:41:12 51°20.216 2°37.124 19.7095 0.126494 0.709177 -1.453281
2008-10-22 09:42:11 51°20.222 2°37.142 19.7013 0.126494 0.70942 -1.453281
2008-10-22 09:43:12 51°20.229 2°37.161 19.7308 0.126494 0.70965 -1.453281
2008-10-22 09:44:11 51°20.236 2°37.18 19.7166 0.126391 0.709252 -1.453281
2008-10-22 09:45:12 51°20.243 2°37.2 19.739 0.126391 0.709418 -1.418457
2008-10-22 09:46:12 51°20.248 2°37.217 19.746 0.126288 0.709032 -1.453281
2008-10-22 09:47:11 51°20.253 2°37.233 19.7471 0.126288 0.709352 -1.453281
2008-10-22 09:48:12 51°20.258 2°37.25 19.7235 0.126185 0.709094 -1.453281
2008-10-22 09:49:12 51°20.244 2°37.261 19.7414 0.126185 0.709415 -1.453281
2008-10-22 09:50:12 51°20.223 2°37.244 19.7752 0.126082 0.709208 -1.453281
2008-10-22 09:51:12 51°20.208 2°37.2 19.7728 0.126082 0.709452 -1.453281
2008-10-22 09:52:12 51°20.197 2°37.135 19.7784 0.125979 0.709052 -1.453281
2008-10-22 09:53:12 51°20.188 2°37.083 19.7873 0.125979 0.709181 -1.453281
2008-10-22 09:54:11 51°20.184 2°37.058 19.8063 0.125877 0.708704 -1.453281
2008-10-22 09:55:12 51°20.184 2°37.049 19.8238 0.125877 0.708922 -1.453281
2008-10-22 09:56:12 51°20.185 2°37.053 19.8289 0.125877 0.709166 -1.453281
2008-10-22 09:57:12 51°20.188 2°37.066 19.8107 0.125774 0.708856 -1.453281
2008-10-22 09:58:11 51°20.192 2°37.085 19.8321 0.125774 0.709101 -1.418457
2008-10-22 09:59:12 51°20.199 2°37.106 19.8327 0.125774 0.709371 -1.453281
2008-10-22 10:00:12 51°20.205 2°37.123 19.844 0.125671 0.708984 -1.453281
2008-10-22 10:01:12 51°20.211 2°37.139 19.8506 0.125671 0.709177 -1.453281
2008-10-22 10:02:12 51°20.217 2°37.157 19.8668 0.125671 0.709435 -1.453281
2008-10-22 10:03:11 51°20.223 2°37.175 19.8696 0.125568 0.709099 -1.453281
2008-10-22 10:04:12 51°20.227 2°37.194 19.885 0.125568 0.709383 -1.453281
2008-10-22 10:05:11 51°20.229 2°37.211 19.8694 0.125465 0.709046 -1.418457
2008-10-22 10:06:12 51°20.23 2°37.226 19.8882 0.125465 0.709266 -1.453281
2008-10-22 10:07:11 51°20.22 2°37.239 19.8758 0.125362 0.708929 -1.418457
2008-10-22 10:08:11 51°20.196 2°37.233 19.902 0.125362 0.709253 -1.453281
2008-10-22 10:09:12 51°20.177 2°37.203 19.9136 0.125362 0.709602 -1.453281
2008-10-22 10:10:12 51°20.17 2°37.15 19.9149 0.125259 0.709188 -1.418457
2008-10-22 10:11:12 51°20.161 2°37.086 19.9419 0.125259 0.709356 -1.453281
2008-10-22 10:12:12 51°20.159 2°37.048 19.945 0.125156 0.708993 -1.453281
2008-10-22 10:13:12 51°20.164 2°37.03 19.9351 0.125156 0.7092 -1.453281
2008-10-22 10:14:11 51°20.172 2°37.027 19.9608 0.125053 0.70876 -1.453281
2008-10-22 10:15:12 51°20.182 2°37.036 19.9525 0.125053 0.708941 -1.453281
2008-10-22 10:16:12 51°20.189 2°37.049 19.9767 0.125053 0.709097 -1.453281
2008-10-22 10:17:11 51°20.195 2°37.063 19.9668 0.12495 0.708642 -1.453281
2008-10-22 10:18:11 51°20.2 2°37.078 19.9758 0.12495 0.708785 -1.453281
2008-10-22 10:19:11 51°20.204 2°37.093 19.9918 0.12495 0.708967 -1.453281
2008-10-22 10:20:11 51°20.208 2°37.108 19.9726 0.12495 0.709161 -1.453281
2008-10-22 10:21:11 51°20.212 2°37.122 19.9836 0.124848 0.708785 -1.418457
2008-10-22 10:22:11 51°20.214 2°37.138 20.0074 0.124848 0.708993 -1.453281
2008-10-22 10:23:11 51°20.218 2°37.152 20.0074 0.124848 0.709227 -1.453281
2008-10-22 10:24:11 51°20.222 2°37.166 20.0056 0.124745 0.708837 -1.418457
2008-10-22 10:25:11 51°20.226 2°37.181 20.0113 0.124745 0.709045 -1.418457
2008-10-22 10:26:11 51°20.23 2°37.196 20.0227 0.124745 0.709253 -1.453281
2008-10-22 10:27:11 51°20.235 2°37.209 20.029 0.124642 0.708876 -1.453281
2008-10-22 10:28:11 51°20.256 2°37.217 20.0122 0.124642 0.709085 -1.453281
2008-10-22 10:29:11 51°20.312 2°37.2 20.0906 0.124642 0.709293 -1.453281
2008-10-22 10:30:11 51°20.367 2°37.173 20.1114 0.124539 0.708903 -1.453281
2008-10-22 10:31:11 51°20.4 2°37.158 20.122 0.124539 0.709098 -1.453281
2008-10-22 10:32:11 51°20.424 2°37.15 20.132 0.124539 0.709268 -1.453281
2008-10-22 10:33:12 51°20.442 2°37.148 20.1506 0.124436 0.708864 -1.418457
2008-10-22 10:34:11 51°20.455 2°37.151 20.1667 0.124436 0.709021 -1.453281
2008-10-22 10:35:11 51°20.469 2°37.156 20.1837 0.124436 0.709204 -1.453281
2008-10-22 10:36:11 51°20.514 2°37.179 20.2118 0.124436 0.709387 -1.453281
2008-10-22 10:37:11 51°20.519 2°37.276 20.2542 0.124333 0.708917 -1.453281
2008-10-22 10:38:11 51°20.471 2°37.385 20.2665 0.124333 0.709035 -1.418457
2008-10-22 10:39:11 51°20.412 2°37.523 20.2841 0.124333 0.709231 -1.453281
2008-10-22 10:40:11 51°20.331 2°37.698 20.2967 0.124333 0.70944 -1.453281
2008-10-22 10:41:11 51°20.237 2°37.876 20.3121 0.12423 0.709062 -1.453281
2008-10-22 10:42:11 51°20.143 2°38.054 20.3376 0.12423 0.709298 -1.418457
2008-10-22 10:43:12 51°20.047 2°38.236 20.3591 0.12423 0.709507 -1.418457
2008-10-22 10:44:11 51°19.953 2°38.41 20.3881 0.124127 0.709182 -1.453281
2008-10-22 10:45:11 51°19.856 2°38.587 20.4019 0.124127 0.709457 -1.418457
2008-10-22 10:46:11 51°19.761 2°38.766 20.3968 0.124127 0.709745 -1.418457
2008-10-22 10:47:11 51°19.667 2°38.943 20.4155 0.124024 0.709406 -1.418457
2008-10-22 10:48:11 51°19.573 2°39.124 20.4255 0.124024 0.709695 -1.453281
2008-10-22 10:49:11 51°19.479 2°39.307 20.4415 0.123921 0.709369 -1.453281
2008-10-22 10:50:12 51°19.385 2°39.493 20.4546 0.123921 0.709645 -1.453281
2008-10-22 10:51:11 51°19.292 2°39.672 20.4673 0.123921 0.709921 -1.453281
2008-10-22 10:52:11 51°19.199 2°39.853 20.4771 0.123818 0.709569 -1.453281
2008-10-22 10:53:11 51°19.104 2°40.032 20.4928 0.123818 0.709858 -1.453281
2008-10-22 10:54:11 51°19.008 2°40.21 20.5069 0.123818 0.710082 -1.453281
2008-10-22 10:55:11 51°18.911 2°40.386 20.5221 0.123716 0.709729 -1.453281
2008-10-22 10:56:11 51°18.813 2°40.56 20.5416 0.123716 0.710006 -1.418457
2008-10-22 10:57:12 51°18.721 2°40.743 20.5166 0.123613 0.70964 -1.453281
2008-10-22 10:58:11 51°18.634 2°40.925 20.5453 0.123613 0.709877 -1.453281
2008-10-22 10:59:12 51°18.545 2°41.11 20.5757 0.123613 0.710115 -1.453281
2008-10-22 11:00:11 51°18.457 2°41.29 20.5852 0.12351 0.709696 -1.453281
2008-10-22 11:01:12 51°18.366 2°41.48 20.597 0.12351 0.709868 -1.453281
2008-10-22 11:02:11 51°18.276 2°41.661 20.6148 0.12351 0.710013 -1.453281
2008-10-22 11:03:12 51°18.177 2°41.84 20.6348 0.123407 0.709514 -1.453281
2008-10-22 11:04:11 51°18.081 2°42.014 20.659 0.123407 0.709646 -1.453281
2008-10-22 11:05:12 51°17.982 2°42.195 20.6606 0.123407 0.709765 -1.348809
2008-10-22 11:06:12 51°17.886 2°42.372 20.6727 0.123407 0.709858 -1.383633
2008-10-22 11:07:11 51°17.789 2°42.545 20.688 0.123407 0.709937 -1.383633
2008-10-22 11:08:12 51°17.69 2°42.723 20.6917 0.123304 0.709372 -1.383633
2008-10-22 11:09:11 51°17.593 2°42.894 20.6943 0.123304 0.709411 -1.383633
2008-10-22 11:10:12 51°17.494 2°43.075 19.5797 0.123304 0.709451 -1.383633
2008-10-22 11:11:11 51°17.385 2°43.271 20.0743 0.123304 0.709517 -1.418457
2008-10-22 11:12:11 51°17.264 2°43.482 20.1277 0.123304 0.709597 -1.383633
2008-10-22 11:13:11 51°17.145 2°43.709 20.1214 0.123304 0.709676 -1.383633
2008-10-22 11:14:12 51°17.027 2°43.946 20.1069 0.123304 0.709703 -1.383633
2008-10-22 11:15:12 51°16.907 2°44.179 20.178 0.123304 0.709755 -1.418457
2008-10-22 11:16:12 51°16.789 2°44.414 20.1364 0.123304 0.709769 -1.418457
2008-10-22 11:17:12 51°16.673 2°44.649 20.2913 0.123304 0.709808 -1.383633
2008-10-22 11:18:11 51°16.574 2°44.893 20.1162 0.123304 0.709782 -1.383633
2008-10-22 11:19:12 51°16.471 2°45.148 20.1533 0.123304 0.709782 -1.383633
2008-10-22 11:20:12 51°16.38 2°45.405 20.3117 0.123304 0.709795 -1.383633
2008-10-22 11:21:11 51°16.293 2°45.658 20.2633 0.123304 0.709769 -1.383633
2008-10-22 11:22:12 51°16.197 2°45.917 20.2563 0.123304 0.709755 -1.418457
2008-10-22 11:23:11 51°16.114 2°46.177 20.2856 0.123304 0.709755 -1.418457
2008-10-22 11:24:12 51°16.038 2°46.462 20.2904 0.123304 0.709755 -1.418457
2008-10-22 11:25:12 51°15.962 2°46.744 20.2894 0.123304 0.709769 -1.418457
2008-10-22 11:26:12 51°15.885 2°47.024 20.2758 0.123304 0.709782 -1.418457
2008-10-22 11:27:11 51°15.808 2°47.299 20.2478 0.123304 0.709822 -1.418457
2008-10-22 11:28:12 51°15.738 2°47.588 20.2786 0.123304 0.709861 -1.418457
2008-10-22 11:29:11 51°15.67 2°47.873 20.3066 0.123304 0.709888 -1.418457
2008-10-22 11:30:11 51°15.605 2°48.156 20.3424 0.123304 0.709954 -1.383633
2008-10-22 11:31:12 51°15.538 2°48.445 20.3614 0.123304 0.709994 -1.418457
2008-10-22 11:32:12 51°15.47 2°48.729 20.3418 0.123304 0.71002 -1.418457
2008-10-22 11:33:12 51°15.402 2°49.014 20.3464 0.123304 0.7101 -1.418457
2008-10-22 11:34:12 51°15.333 2°49.299 20.3743 0.123304 0.710113 -1.418457
2008-10-22 11:35:12 51°15.265 2°49.582 20.3628 0.123304 0.71014 -1.418457
2008-10-22 11:36:11 51°15.211 2°49.872 20.3939 0.123201 0.709574 -1.418457
2008-10-22 11:37:12 51°15.165 2°50.173 20.3673 0.123201 0.7096 -1.418457
2008-10-22 11:38:12 51°15.119 2°50.468 20.3721 0.123201 0.709627 -1.418457
2008-10-22 11:39:11 51°15.069 2°50.755 20.3922 0.123201 0.70968 -1.418457
2008-10-22 11:40:12 51°15.017 2°51.054 20.4018 0.123201 0.709693 -1.418457
2008-10-22 11:41:12 51°14.971 2°51.347 20.4066 0.123201 0.709759 -1.418457
2008-10-22 11:42:12 51°14.931 2°51.636 20.4082 0.123201 0.709786 -1.418457
2008-10-22 11:43:12 51°14.897 2°51.928 20.424 0.123201 0.709825 -1.418457
2008-10-22 11:44:12 51°14.857 2°52.218 20.4226 0.123201 0.709865 -1.418457
2008-10-22 11:45:11 51°14.818 2°52.504 20.413 0.123201 0.709892 -1.418457
2008-10-22 11:46:12 51°14.775 2°52.803 20.4304 0.123201 0.709945 -1.418457
2008-10-22 11:47:12 51°14.735 2°53.1 20.4312 0.123201 0.709985 -1.418457
2008-10-22 11:48:12 51°14.701 2°53.398 20.4435 0.123201 0.710038 -1.418457
2008-10-22 11:49:12 51°14.662 2°53.692 20.4245 0.123201 0.710051 -1.418457
2008-10-22 11:50:12 51°14.615 2°53.992 20.4246 0.123201 0.710091 -1.418457
2008-10-22 11:51:12 51°14.564 2°54.288 20.4395 0.123201 0.710131 -1.418457
2008-10-22 11:52:12 51°14.504 2°54.579 20.4509 0.123201 0.71017 -1.418457
2008-10-22 11:53:12 51°14.429 2°54.859 20.462 0.123201 0.710224 -1.418457
2008-10-22 11:54:12 51°14.332 2°55.124 20.4598 0.123201 0.710197 -1.418457
2008-10-22 11:55:12 51°14.208 2°55.327 20.4702 0.123201 0.710277 -1.418457
2008-10-22 11:56:12 51°14.092 2°55.428 20.469 0.123201 0.71033 -1.418457